[[{"header":{"parameterUnit":"m.s-1","parameterCategory":2,"la1":30.2991,"la2":30.254,"lo1":-89.0895,"lo2":-89.0444,"dy":0.0017,"dx":0.0017,"nx":28,"ny":28,"refTime":"2023-09-01T03:00:00:Z","depth":"0","parameterNumber":2,"parameterNumberName":"U-component_of_CURRENTS"},"data":[0,0,0,0,0,0,0,0,0,0,0,0,0,0,0,0,0,0,0,0,0,0,0,0,0,0,0,0,0,0,0,0,0,0,0,0,0,0,0,0,0,0,0,0,0,0,0,0,0,0,0,0,0,0,0,0,0,0,0.171,0.171,0,0.1713,0.1713,0.1713,0.172,0.172,0.172,0.172,0.1724,0.1724,0.1724,0,0,0,0,0,0,0,0,0,0,0,0,0,0.1697,0.1698,0.171,0.171,0.171,0.1713,0.1713,0.1713,0.172,0.172,0.172,0.172,0.1724,0.1724,0.1724,0,0,0,0,0,0,0,0,0,0,0,0,0,0.1701,0.1698,0.171,0.1715,0.1716,0.1713,0.1713,0.1713,0.1719,0.172,0.172,0.1721,0.1724,0.1724,0.1724,0.1715,0,0,0.1723,0.1723,0,0,0,0,0,0,0,0,0.17,0.1701,0.1714,0.1715,0.1715,0.1718,0.171,0.1714,0.1719,0.1716,0.172,0.1721,0.1723,0.1723,0.172,0.1715,0.1715,0.1723,0.1723,0.1723,0.1723,0,0,0,0,0,0,0,0.17,0.1701,0.171,0.1714,0.1715,0.1713,0.1714,0.1711,0.1716,0.1717,0.1718,0.172,0.1723,0.172,0.172,0.1715,0.1723,0.1723,0.1723,0.1723,0.173,0.173,0,0,0,0,0,0,0.1703,0.1701,0.171,0.171,0.171,0.1713,0.1714,0.1715,0.1716,0.1717,0.172,0.172,0.1721,0.1721,0.1721,0.1738,0.1723,0.1723,0.1723,0.173,0.173,0.1731,0,0,0,0,0,0,0.1703,0.1704,0.171,0.1707,0.1708,0.1713,0.1714,0.1715,0.1718,0.1719,0.172,0.1723,0.1721,0.1721,0.1724,0.1737,0.1723,0.1722,0.1729,0.173,0.173,0.1754,0,0,0,0,0,0,0.1702,0.1703,0.1704,0.1707,0.1708,0.1717,0.1714,0.1715,0.1719,0.172,0.1721,0.1722,0.1721,0.1724,0.1724,0.1736,0.1722,0.1729,0.173,0.173,0.1753,0.1756,0.1758,0,0,0,0,0,0.1702,0.1703,0.1704,0.1705,0.1709,0.1718,0.1718,0.1722,0.1719,0.1725,0.1723,0.1722,0.1728,0.1724,0.1724,0.1737,0.1729,0.173,0.173,0.1752,0.1755,0.1758,0,0,0,0,0,0,0.1698,0.1704,0.1705,0.1708,0.1716,0.172,0.1723,0.1723,0.1725,0.1724,0.1722,0.1723,0.1733,0.1728,0.1724,0.174,0.173,0.173,0.1747,0.1749,0.1752,0.176,0.1722,0,0,0,0,0,0.1697,0.1701,0.1708,0.1711,0.1716,0.1718,0.1721,0.1724,0.1727,0.1728,0.1727,0.1728,0.1734,0.1736,0.1738,0.1742,0.1759,0.1751,0.1753,0.1755,0.1761,0.1789,0.1795,0.1733,0.1733,0.1733,0,0,0.1695,0.1701,0.1701,0.1711,0.1715,0.1724,0.1721,0.1728,0.1736,0.1727,0.1734,0.1735,0.1737,0.1747,0.1751,0.1745,0.1785,0.1756,0.1758,0.1763,0.179,0.1797,0.1802,0.1734,0.1733,0.1733,0,0,0.1698,0.17,0.1706,0.1714,0.1725,0.1729,0.1732,0.1737,0.1741,0.1746,0.1746,0.1755,0.1755,0.1764,0.1768,0.1782,0.1797,0.1782,0.18,0.1827,0.1832,0.1837,0.1884,0.1893,0.1783,0.1783,0.1783,0,0.1696,0.1705,0.1709,0.172,0.173,0.1732,0.1744,0.1747,0.1752,0.1761,0.1753,0.1768,0.1766,0.1789,0.1794,0.1788,0.1812,0.179,0.1831,0.1836,0.1841,0.1887,0.1897,0.1784,0.1784,0.1784,0.1784,0,0.1705,0.1714,0.172,0.1734,0.1745,0.1756,0.1765,0.1773,0.1774,0.178,0.1801,0.1798,0.1813,0.1811,0.1805,0.1839,0.185,0.1832,0.1826,0.1849,0.1896,0.1905,0.1786,0.1785,0.1785,0.1785,0,0,0.1699,0.1721,0.1724,0.1735,0.1755,0.1764,0.1781,0.1801,0.1819,0.182,0.1847,0.185,0.1855,0.1859,0.1857,0.1873,0.1927,0.1867,0.1868,0.1918,0.2008,0.2065,0.2081,0.1918,0.1919,0.192,0.2034,0,0.1707,0.1727,0.1739,0.1761,0.1774,0.1789,0.1807,0.1825,0.184,0.1864,0.1871,0.1895,0.1872,0.1887,0.1899,0.1923,0.195,0.1899,0.1974,0.1977,0.2029,0.2093,0.2096,0.2202,0.2043,0.2045,0.2046,0,0.1713,0.1728,0.1749,0.178,0.1788,0.18,0.1838,0.1854,0.1889,0.1906,0.1931,0.1944,0.198,0.1948,0.201,0.1981,0.1999,0.201,0.2014,0.2065,0.2052,0.215,0.2226,0.2194,0.2061,0.206,0.2059,0,0.1707,0.1737,0.1754,0.1764,0.1796,0.1811,0.1827,0.1864,0.1894,0.1938,0.1977,0.2007,0.2046,0.2062,0.2101,0.2059,0.2175,0.2119,0.219,0.2195,0.2212,0.2217,0.227,0.2163,0.2162,0.2162,0.2162,0,0.1711,0.1725,0.175,0.1758,0.1783,0.1807,0.184,0.1866,0.1921,0.1963,0.1998,0.2054,0.2076,0.2145,0.2144,0.2229,0.222,0.2222,0.2235,0.2223,0.2227,0.221,0.2178,0.2166,0.2165,0.2165,0.2164,0,0.17,0.1717,0.1736,0.1768,0.1779,0.1793,0.1845,0.1869,0.1934,0.1995,0.202,0.2118,0.2219,0.2265,0.2323,0.2315,0.2325,0.2389,0.2391,0.2403,0.2415,0.2384,0.2328,0.2249,0.2479,0.2481,0.2483,0,0.1695,0.1703,0.1733,0.1739,0.1751,0.1778,0.1795,0.186,0.19,0.2031,0.2067,0.2207,0.231,0.2461,0.249,0.2558,0.2433,0.2569,0.2477,0.245,0.2425,0.2259,0.2182,0.2514,0.2516,0.2518,0.2519,0,0.1679,0.1688,0.1699,0.1716,0.173,0.1756,0.1796,0.1836,0.1918,0.2007,0.2144,0.2251,0.2438,0.2542,0.2653,0.2667,0.248,0.2604,0.2567,0.2467,0.2297,0.2218,0.2413,0.2533,0.2532,0.2531,0.253,0.2529,0.1658,0.1659,0.167,0.1684,0.1703,0.1728,0.1739,0.1813,0.19,0.2018,0.2148,0.2302,0.2514,0.2696,0.2695,0.2725,0.2598,0.2664,0.2636,0.2473,0.2372,0.2621,0.2757,0.2757,0.2757,0.2756,0.2756,0,0.1621,0.1626,0.1636,0.1646,0.1649,0.1683,0.1731,0.1745,0.1833,0.1998,0.2136,0.2388,0.2556,0.2678,0.2823,0.2774,0.257,0.2704,0.2465,0.2388,0.2635,0.2614,0.2736,0.2736,0.2736,0.2737,0.2737,0.2737,0.1598,0.1589,0.1597,0.1587,0.1599,0.1594,0.1614,0.1666,0.1776,0.1943,0.2104,0.2254,0.2555,0.2814,0.2863,0.2795,0.2549,0.2483,0.2379,0.2586,0.2577,0.2569,0.2542,0.2647,0.2646,0.2039,0.2035,0.2032]},{"header":{"parameterUnit":"m.s-1","parameterCategory":2,"la1":30.2991,"la2":30.254,"lo1":-89.0895,"lo2":-89.0444,"dy":0.0017,"dx":0.0017,"nx":28,"ny":28,"refTime":"2023-09-01T03:00:00:Z","depth":"0","parameterNumber":3,"parameterNumberName":"V-component_of_CURRENTS"},"data":[0,0,0,0,0,0,0,0,0,0,0,0,0,0,0,0,0,0,0,0,0,0,0,0,0,0,0,0,0,0,0,0,0,0,0,0,0,0,0,0,0,0,0,0,0,0,0,0,0,0,0,0,0,0,0,0,0,0,-0.0009,-0.001,0,-0.0054,-0.0054,-0.0055,-0.009,-0.009,-0.009,-0.009,-0.0167,-0.0169,-0.0171,0,0,0,0,0,0,0,0,0,0,0,0,0,0.0025,0.0025,-0.0009,-0.001,-0.001,-0.0054,-0.0054,-0.0055,-0.0089,-0.009,-0.009,-0.0091,-0.0167,-0.0169,-0.0171,0,0,0,0,0,0,0,0,0,0,0,0,0,-0.0002,0.0025,-0.0009,-0.0032,-0.0035,-0.0053,-0.0054,-0.0055,-0.0089,-0.009,-0.009,-0.0091,-0.0166,-0.0169,-0.0171,-0.0179,0,0,-0.0179,-0.0181,0,0,0,0,0,0,0,0,-0.0,-0.0003,-0.0028,-0.0031,-0.0034,-0.0066,-0.007,-0.0098,-0.0089,-0.0069,-0.009,-0.0091,-0.0136,-0.0141,-0.0149,-0.0182,-0.0186,-0.018,-0.0181,-0.0182,-0.0183,0,0,0,0,0,0,0,0.0002,-0.0002,-0.0027,-0.0029,-0.0032,-0.0048,-0.0052,-0.0076,-0.01,-0.0071,-0.0073,-0.0078,-0.0138,-0.0146,-0.0151,-0.0187,-0.018,-0.0182,-0.0184,-0.0185,-0.0233,-0.0233,0,0,0,0,0,0,0.0009,0.0,-0.0026,-0.0028,-0.0017,-0.0048,-0.0053,-0.0056,-0.0099,-0.0106,-0.0077,-0.0079,-0.0141,-0.0148,-0.0154,-0.0168,-0.0182,-0.0185,-0.0186,-0.0233,-0.0233,-0.0233,0,0,0,0,0,0,0.001,0.0008,-0.0024,-0.0015,-0.002,-0.0048,-0.0051,-0.0056,-0.0065,-0.0104,-0.0111,-0.0081,-0.0142,-0.015,-0.0174,-0.0171,-0.0186,-0.0189,-0.0234,-0.0233,-0.0233,-0.0194,0,0,0,0,0,0,0.0012,0.0008,0.0011,-0.0014,-0.002,-0.0031,-0.0051,-0.0057,-0.0067,-0.007,-0.011,-0.0117,-0.0143,-0.017,-0.0177,-0.0175,-0.0191,-0.0234,-0.0234,-0.0233,-0.0196,-0.0193,-0.019,0,0,0,0,0,0.0013,0.0019,0.0011,0.0008,-0.0016,-0.0031,-0.0035,-0.0057,-0.0067,-0.0067,-0.0095,-0.0116,-0.0171,-0.0172,-0.018,-0.0179,-0.0234,-0.0234,-0.0233,-0.0197,-0.0193,-0.019,0,0,0,0,0,0,0.0037,0.0015,0.0006,0.0006,-0.0009,-0.0036,-0.0038,-0.0053,-0.0075,-0.0078,-0.0115,-0.0124,-0.0143,-0.0165,-0.0165,-0.019,-0.0205,-0.0206,-0.0175,-0.0172,-0.0168,-0.0159,-0.0193,0,0,0,0,0,0.0044,0.0042,0.0019,0.002,0.0014,-0.001,-0.0018,-0.0033,-0.0056,-0.0066,-0.0093,-0.0121,-0.0146,-0.0161,-0.0184,-0.02,-0.0223,-0.0204,-0.0201,-0.0198,-0.0195,-0.0228,-0.0228,-0.023,-0.023,-0.0231,0,0,0.0053,0.0042,0.0041,0.0025,0.0012,0.0008,-0.0016,-0.0024,-0.0029,-0.0071,-0.0084,-0.0111,-0.0147,-0.0164,-0.0174,-0.0183,-0.0207,-0.0197,-0.0194,-0.0193,-0.0227,-0.0227,-0.0227,-0.023,-0.023,-0.023,0,0,0.0073,0.0062,0.0067,0.0057,0.0041,0.0026,0.0025,0.0001,-0.0011,-0.0027,-0.0058,-0.0083,-0.0118,-0.0145,-0.0163,-0.0156,-0.0188,-0.0161,-0.0142,-0.0174,-0.0174,-0.0174,-0.0195,-0.0197,-0.0162,-0.0162,-0.0162,0,0.0086,0.0088,0.0067,0.007,0.0066,0.0036,0.0042,0.0025,-0.0004,-0.0013,-0.0025,-0.0078,-0.0109,-0.0137,-0.0135,-0.015,-0.0169,-0.0154,-0.017,-0.0171,-0.0172,-0.0193,-0.0196,-0.016,-0.016,-0.016,-0.016,0,0.0107,0.0109,0.0113,0.0106,0.0099,0.0099,0.0075,0.0066,0.0048,0.0028,0.0002,-0.0042,-0.0074,-0.0087,-0.0111,-0.0133,-0.0143,-0.0161,-0.0179,-0.017,-0.0192,-0.0196,-0.0157,-0.0158,-0.0158,-0.0159,0,0,0.0135,0.0129,0.013,0.0137,0.0119,0.0118,0.011,0.0094,0.0092,0.0057,0.0048,0.0,-0.0025,-0.0046,-0.0082,-0.0112,-0.0137,-0.0136,-0.0139,-0.0155,-0.0199,-0.0184,-0.0187,-0.0158,-0.0159,-0.0159,-0.0209,0,0.0159,0.0176,0.0163,0.018,0.0188,0.0161,0.0158,0.0139,0.0117,0.0101,0.005,0.003,-0.0009,-0.0023,-0.0061,-0.0117,-0.0147,-0.0121,-0.0207,-0.0209,-0.0196,-0.0191,-0.017,-0.0211,-0.0213,-0.0214,-0.0214,0,0.0184,0.0193,0.0214,0.0221,0.0222,0.0224,0.0216,0.021,0.0174,0.0157,0.012,0.0083,0.0033,0.0001,-0.0093,-0.0074,-0.0131,-0.0176,-0.018,-0.0182,-0.0202,-0.0223,-0.0219,-0.0363,-0.0221,-0.0221,-0.022,0,0.0218,0.0231,0.025,0.0252,0.0251,0.0254,0.025,0.0226,0.0235,0.0191,0.0195,0.012,0.0099,0.0009,-0.0076,-0.0089,-0.0173,-0.0206,-0.0247,-0.0246,-0.0253,-0.0252,-0.0398,-0.0272,-0.0272,-0.0272,-0.0272,0,0.0248,0.0266,0.0269,0.028,0.0308,0.0291,0.031,0.0294,0.0286,0.0307,0.0228,0.0238,0.0102,0.0043,-0.0058,-0.0152,-0.0161,-0.024,-0.0259,-0.0237,-0.0234,-0.038,-0.046,-0.0274,-0.0273,-0.0273,-0.0273,0,0.028,0.028,0.0309,0.0318,0.0324,0.0343,0.0364,0.0381,0.0362,0.0387,0.0383,0.0329,0.0257,0.0128,-0.0007,-0.0108,-0.0293,-0.0246,-0.0203,-0.0215,-0.0395,-0.0472,-0.0624,-0.0703,-0.0313,-0.0313,-0.0313,0,0.0297,0.0314,0.0343,0.0367,0.0373,0.0398,0.042,0.0417,0.0448,0.0458,0.0485,0.0431,0.0431,0.0239,0.0041,-0.0133,-0.0274,-0.0242,-0.027,-0.04,-0.0502,-0.0559,-0.062,-0.0266,-0.0266,-0.0265,-0.0265,0,0.0333,0.0342,0.0367,0.0418,0.045,0.0492,0.0529,0.0574,0.0583,0.0624,0.0687,0.0696,0.0518,0.0364,0.011,-0.0025,-0.0348,-0.024,-0.0398,-0.0492,-0.0544,-0.0628,-0.0235,-0.0262,-0.0262,-0.0262,-0.0262,-0.0262,0.0362,0.0392,0.0429,0.0479,0.0524,0.0595,0.0652,0.0716,0.0803,0.0902,0.0874,0.094,0.0668,0.0339,0.0103,-0.0306,-0.0325,-0.0427,-0.0513,-0.0562,-0.0632,-0.0219,-0.0251,-0.0252,-0.0252,-0.0252,-0.0252,0,0.0402,0.0438,0.0489,0.0557,0.0623,0.0635,0.0734,0.0816,0.0956,0.1063,0.1147,0.1094,0.0744,0.0358,-0.0195,-0.0514,-0.0656,-0.0697,-0.0798,-0.0851,-0.0501,-0.0494,-0.0552,-0.0552,-0.0552,-0.0552,-0.0552,-0.0551,0.0426,0.0485,0.0515,0.0634,0.0689,0.0797,0.087,0.1007,0.1122,0.1306,0.1393,0.1428,0.1164,0.0116,-0.0625,-0.0813,-0.1056,-0.1095,-0.1238,-0.1019,-0.1002,-0.0985,-0.0998,-0.1161,-0.1162,-0.1548,-0.1552,-0.1555]}],[{"header":{"parameterUnit":"m.s-1","parameterCategory":2,"la1":30.2991,"la2":30.254,"lo1":-89.0895,"lo2":-89.0444,"dy":0.0017,"dx":0.0017,"nx":28,"ny":28,"refTime":"2023-09-01T03:00:00:Z","depth":"2","parameterNumber":2,"parameterNumberName":"U-component_of_CURRENTS"},"data":[0,0,0,0,0,0,0,0,0,0,0,0,0,0,0,0,0,0,0,0,0,0,0,0,0,0,0,0,0,0,0,0,0,0,0,0,0,0,0,0,0,0,0,0,0,0,0,0,0,0,0,0,0,0,0,0,0,0,0.1527,0.1528,0,0.1539,0.1539,0.1539,0.1555,0.1555,0.1555,0.1556,0.1573,0.1573,0.1573,0,0,0,0,0,0,0,0,0,0,0,0,0,0.1502,0.1503,0.1527,0.1528,0.1528,0.1539,0.1539,0.1539,0.1554,0.1555,0.1555,0.1556,0.1573,0.1573,0.1573,0,0,0,0,0,0,0,0,0,0,0,0,0,0.1512,0.1503,0.1527,0.1538,0.1539,0.1539,0.1539,0.1539,0.1554,0.1555,0.1555,0.1556,0.1573,0.1573,0.1573,0.1564,0,0,0.1574,0.1574,0,0,0,0,0,0,0,0,0.1512,0.1513,0.1536,0.1537,0.1538,0.1547,0.1537,0.1548,0.1554,0.1547,0.1556,0.1556,0.1565,0.1566,0.1565,0.1564,0.1565,0.1574,0.1574,0.1574,0.1574,0,0,0,0,0,0,0,0.1511,0.1513,0.1531,0.1536,0.1538,0.1537,0.1539,0.1539,0.1552,0.1548,0.1549,0.1552,0.1566,0.1565,0.1566,0.1565,0.1574,0.1574,0.1574,0.1574,0.1597,0.1597,0,0,0,0,0,0,0.1513,0.1512,0.153,0.1531,0.1528,0.1537,0.1539,0.1543,0.1552,0.1554,0.1552,0.1553,0.1564,0.1566,0.1567,0.1593,0.1574,0.1574,0.1574,0.1596,0.1597,0.1598,0,0,0,0,0,0,0.1512,0.1514,0.153,0.1523,0.1525,0.1537,0.1541,0.1543,0.1552,0.1555,0.1558,0.156,0.1565,0.1566,0.1577,0.1593,0.1574,0.1575,0.1596,0.1597,0.1597,0.1623,0,0,0,0,0,0,0.1511,0.1514,0.1518,0.1523,0.1526,0.1541,0.154,0.1543,0.1553,0.1555,0.1563,0.1565,0.1565,0.1577,0.1577,0.1593,0.1575,0.1595,0.1596,0.1597,0.1621,0.1624,0.1627,0,0,0,0,0,0.151,0.1515,0.1518,0.1521,0.1531,0.1541,0.1543,0.1551,0.1553,0.156,0.1565,0.1565,0.1583,0.1577,0.1578,0.1594,0.1595,0.1596,0.1597,0.162,0.1624,0.1627,0,0,0,0,0,0,0.1506,0.1517,0.1521,0.1529,0.1539,0.1545,0.1552,0.1555,0.1563,0.1566,0.1568,0.157,0.1587,0.1584,0.1577,0.1603,0.159,0.1591,0.1608,0.1611,0.1614,0.162,0.1575,0,0,0,0,0,0.1507,0.1516,0.1525,0.1533,0.1538,0.1545,0.1551,0.1557,0.1564,0.1568,0.1573,0.158,0.1589,0.1595,0.1601,0.1611,0.1622,0.1622,0.1625,0.1627,0.1632,0.1657,0.1662,0.1601,0.1601,0.1601,0,0,0.1507,0.1515,0.152,0.1533,0.154,0.1551,0.155,0.1562,0.1573,0.1568,0.1584,0.1589,0.1594,0.161,0.1617,0.1611,0.1653,0.1629,0.1631,0.1634,0.1658,0.1665,0.167,0.1602,0.1602,0.1602,0,0,0.1511,0.152,0.1528,0.1539,0.1553,0.1559,0.1564,0.1574,0.1583,0.1595,0.1599,0.1613,0.1622,0.1632,0.1637,0.1657,0.1667,0.166,0.1679,0.1703,0.1708,0.1713,0.1747,0.1755,0.1661,0.1661,0.1661,0,0.1512,0.1524,0.1533,0.1544,0.1556,0.1564,0.1577,0.1585,0.1597,0.1608,0.1605,0.1632,0.1633,0.1659,0.1668,0.1664,0.1683,0.1667,0.1707,0.1712,0.1717,0.175,0.1758,0.1663,0.1663,0.1662,0.1662,0,0.1521,0.1534,0.1541,0.1559,0.1572,0.1585,0.1599,0.1613,0.1622,0.1631,0.1659,0.1663,0.1683,0.1685,0.1682,0.1717,0.1723,0.1709,0.17,0.1725,0.1758,0.1766,0.1665,0.1664,0.1664,0.1663,0,0,0.1513,0.1541,0.1545,0.1558,0.1583,0.1593,0.1616,0.164,0.166,0.1672,0.1701,0.1715,0.1723,0.1729,0.1732,0.1748,0.1797,0.1745,0.1745,0.1781,0.1865,0.1877,0.1887,0.1792,0.1794,0.1795,0.188,0,0.1519,0.1541,0.1557,0.1582,0.1596,0.1617,0.1639,0.1662,0.1683,0.1712,0.1725,0.1754,0.1739,0.1758,0.1771,0.1796,0.1818,0.1776,0.1833,0.1835,0.1845,0.1896,0.1765,0.183,0.1888,0.1889,0.189,0,0.1522,0.1539,0.1563,0.1599,0.1607,0.1624,0.1667,0.1687,0.1728,0.1748,0.1779,0.1796,0.1837,0.1812,0.1869,0.1847,0.1859,0.1869,0.1872,0.1879,0.1862,0.1812,0.1843,0.1903,0.1902,0.1901,0.19,0,0.151,0.1544,0.1565,0.1576,0.1615,0.1634,0.1656,0.1697,0.173,0.1778,0.1818,0.1852,0.1897,0.1909,0.1942,0.1912,0.2003,0.1962,0.1985,0.1986,0.1884,0.1874,0.1997,0.1997,0.1996,0.1996,0.1996,0,0.1509,0.1526,0.1561,0.1572,0.16,0.163,0.1667,0.1696,0.1757,0.1798,0.1839,0.1891,0.1925,0.1981,0.1976,0.2027,0.2037,0.2008,0.2014,0.1891,0.1881,0.1942,0.1935,0.1999,0.1999,0.1998,0.1998,0,0.1491,0.1515,0.1538,0.1579,0.1594,0.1612,0.1674,0.17,0.1768,0.1829,0.1857,0.1953,0.2029,0.2065,0.2111,0.2095,0.2119,0.2127,0.1992,0.1982,0.2074,0.2067,0.216,0.2161,0.2162,0.2163,0.2163,0,0.1483,0.1493,0.1534,0.1544,0.1563,0.1597,0.1619,0.169,0.1731,0.1858,0.1892,0.2011,0.2071,0.2173,0.2175,0.2201,0.2184,0.2081,0.1992,0.2097,0.2093,0.2084,0.2076,0.1868,0.1866,0.1865,0.1864,0,0.1463,0.1479,0.1496,0.1518,0.1539,0.1569,0.1616,0.1652,0.1737,0.181,0.1914,0.1982,0.211,0.21,0.216,0.2137,0.2065,0.2055,0.2205,0.1853,0.183,0.1824,0.1824,0.1851,0.1852,0.1853,0.1854,0.1854,0.1442,0.1445,0.1465,0.1482,0.1509,0.1531,0.1536,0.1598,0.1661,0.1744,0.1856,0.1917,0.1983,0.2021,0.1976,0.1948,0.2069,0.196,0.196,0.1963,0.192,0.1901,0.1928,0.1929,0.1931,0.1932,0.1933,0,0.1404,0.1413,0.1426,0.1438,0.1442,0.1482,0.1524,0.1514,0.1552,0.1666,0.1745,0.1676,0.172,0.1768,0.1728,0.1746,0.1676,0.1659,0.1548,0.1566,0.1581,0.1512,0.1415,0.1412,0.141,0.1408,0,0,0.138,0.1371,0.1375,0.1364,0.1379,0.1368,0.1377,0.1377,0.1441,0.1459,0.1504,0.1668,0.1765,0.1569,0.1561,0.1483,0.1498,0.1428,0.186,0.1752,0.1763,0.1791,0.1713,0,0,0,0,0]},{"header":{"parameterUnit":"m.s-1","parameterCategory":2,"la1":30.2991,"la2":30.254,"lo1":-89.0895,"lo2":-89.0444,"dy":0.0017,"dx":0.0017,"nx":28,"ny":28,"refTime":"2023-09-01T03:00:00:Z","depth":"2","parameterNumber":3,"parameterNumberName":"V-component_of_CURRENTS"},"data":[0,0,0,0,0,0,0,0,0,0,0,0,0,0,0,0,0,0,0,0,0,0,0,0,0,0,0,0,0,0,0,0,0,0,0,0,0,0,0,0,0,0,0,0,0,0,0,0,0,0,0,0,0,0,0,0,0,0,0.0001,0.0001,0,-0.0044,-0.0045,-0.0045,-0.0079,-0.0079,-0.0079,-0.008,-0.016,-0.0162,-0.0164,0,0,0,0,0,0,0,0,0,0,0,0,0,0.0038,0.0038,0.0001,0.0001,0.0,-0.0044,-0.0045,-0.0046,-0.0079,-0.0079,-0.008,-0.008,-0.016,-0.0162,-0.0164,0,0,0,0,0,0,0,0,0,0,0,0,0,0.001,0.0037,0.0001,-0.0022,-0.0024,-0.0044,-0.0045,-0.0046,-0.0079,-0.0079,-0.008,-0.008,-0.0159,-0.0162,-0.0165,-0.0175,0,0,-0.0173,-0.0175,0,0,0,0,0,0,0,0,0.0012,0.0009,-0.0018,-0.002,-0.0023,-0.0056,-0.0062,-0.009,-0.0079,-0.0058,-0.008,-0.008,-0.0128,-0.0134,-0.0141,-0.0178,-0.0182,-0.0174,-0.0175,-0.0177,-0.0177,0,0,0,0,0,0,0,0.0014,0.001,-0.0017,-0.0018,-0.0021,-0.0037,-0.0041,-0.0067,-0.0092,-0.006,-0.0063,-0.0067,-0.013,-0.0139,-0.0144,-0.0183,-0.0174,-0.0176,-0.0178,-0.0179,-0.0235,-0.0235,0,0,0,0,0,0,0.0021,0.0012,-0.0016,-0.0019,-0.0006,-0.0037,-0.0042,-0.0045,-0.0091,-0.0098,-0.0067,-0.0068,-0.0133,-0.014,-0.0147,-0.0163,-0.0177,-0.0179,-0.0181,-0.0235,-0.0235,-0.0234,0,0,0,0,0,0,0.0022,0.0019,-0.0014,-0.0004,-0.0009,-0.0037,-0.0041,-0.0046,-0.0056,-0.0095,-0.0103,-0.0072,-0.0134,-0.0143,-0.0169,-0.0166,-0.0181,-0.0183,-0.0235,-0.0235,-0.0235,-0.0195,0,0,0,0,0,0,0.0024,0.002,0.0021,-0.0003,-0.001,-0.0023,-0.0041,-0.0047,-0.0058,-0.0061,-0.0102,-0.011,-0.0135,-0.0164,-0.0172,-0.0171,-0.0185,-0.0236,-0.0235,-0.0235,-0.0197,-0.0193,-0.019,0,0,0,0,0,0.0025,0.0029,0.0022,0.0018,-0.0007,-0.0023,-0.0027,-0.0049,-0.0058,-0.006,-0.0088,-0.0108,-0.0167,-0.0167,-0.0175,-0.0175,-0.0236,-0.0235,-0.0235,-0.0198,-0.0194,-0.019,0,0,0,0,0,0,0.0046,0.0025,0.0017,0.0014,-0.0001,-0.0028,-0.0031,-0.0046,-0.0068,-0.0072,-0.0109,-0.0118,-0.0139,-0.0162,-0.0161,-0.0189,-0.0203,-0.0205,-0.0172,-0.0169,-0.0166,-0.0155,-0.0188,0,0,0,0,0,0.0052,0.0049,0.0027,0.0025,0.002,-0.0005,-0.0013,-0.0027,-0.0051,-0.0061,-0.0089,-0.0118,-0.0143,-0.0159,-0.0183,-0.0202,-0.0223,-0.0206,-0.0203,-0.02,-0.0196,-0.0227,-0.0226,-0.0233,-0.0233,-0.0233,0,0,0.0059,0.0048,0.0046,0.003,0.0017,0.0013,-0.0011,-0.002,-0.0025,-0.0066,-0.008,-0.0108,-0.0145,-0.0163,-0.0174,-0.0183,-0.0208,-0.0199,-0.0197,-0.0195,-0.0226,-0.0226,-0.0225,-0.0232,-0.0232,-0.0232,0,0,0.0075,0.0064,0.0068,0.0058,0.0042,0.0027,0.0027,0.0002,-0.001,-0.0027,-0.0057,-0.0083,-0.0119,-0.0146,-0.0164,-0.0159,-0.0189,-0.0165,-0.0145,-0.0174,-0.0174,-0.0174,-0.0194,-0.0197,-0.0166,-0.0165,-0.0165,0,0.0085,0.0087,0.0067,0.0069,0.0066,0.0037,0.0042,0.0026,-0.0004,-0.0012,-0.0025,-0.0078,-0.0111,-0.0137,-0.0136,-0.0153,-0.017,-0.0156,-0.017,-0.0171,-0.0171,-0.0192,-0.0195,-0.0164,-0.0164,-0.0164,-0.0164,0,0.0104,0.0106,0.0109,0.0103,0.0096,0.0096,0.0073,0.0064,0.0046,0.0028,0.0001,-0.0043,-0.0075,-0.0089,-0.0113,-0.0133,-0.0144,-0.0161,-0.0178,-0.0168,-0.0191,-0.0195,-0.0161,-0.0161,-0.0162,-0.0162,0,0,0.0124,0.0122,0.0123,0.0131,0.0115,0.0114,0.0107,0.0093,0.0092,0.0057,0.005,0.0001,-0.0024,-0.0046,-0.0082,-0.011,-0.0133,-0.0134,-0.0137,-0.0152,-0.019,-0.0192,-0.0196,-0.0152,-0.0153,-0.0153,-0.0202,0,0.0145,0.0164,0.0153,0.0171,0.018,0.0156,0.0154,0.0137,0.0117,0.0102,0.0052,0.0031,-0.0007,-0.0022,-0.0057,-0.0113,-0.0141,-0.0117,-0.02,-0.0202,-0.0203,-0.02,-0.0185,-0.0227,-0.0206,-0.0207,-0.0207,0,0.0166,0.0178,0.0199,0.0211,0.0213,0.0215,0.0211,0.0205,0.0173,0.0157,0.0122,0.0087,0.0038,0.0006,-0.0085,-0.0067,-0.0123,-0.0167,-0.0171,-0.0188,-0.0211,-0.0236,-0.0235,-0.0214,-0.0213,-0.0213,-0.0212,0,0.0194,0.0211,0.0232,0.0235,0.0239,0.0243,0.0241,0.022,0.0229,0.019,0.0194,0.0124,0.01,0.0017,-0.0071,-0.0081,-0.0166,-0.0193,-0.0247,-0.0248,-0.026,-0.026,-0.0255,-0.0255,-0.0255,-0.0255,-0.0255,0,0.0221,0.0239,0.0248,0.026,0.0288,0.0276,0.0295,0.0282,0.0276,0.0296,0.0225,0.023,0.0103,0.0043,-0.0053,-0.0154,-0.0154,-0.0241,-0.0261,-0.0244,-0.0243,-0.0252,-0.0251,-0.0257,-0.0256,-0.0256,-0.0256,0,0.0246,0.0251,0.0281,0.0295,0.0302,0.0321,0.0344,0.0361,0.0345,0.0369,0.0364,0.031,0.0229,0.0106,-0.0025,-0.0117,-0.0223,-0.0258,-0.0223,-0.0238,-0.0292,-0.0289,-0.0333,-0.0334,-0.0334,-0.0334,-0.0335,0,0.026,0.0277,0.031,0.0334,0.0341,0.0367,0.0388,0.0391,0.0421,0.0428,0.0452,0.0387,0.0358,0.0165,-0.0016,-0.0186,-0.0208,-0.0283,-0.0305,-0.0285,-0.0301,-0.0296,-0.0292,-0.0305,-0.0305,-0.0305,-0.0305,0,0.0289,0.0299,0.0325,0.0375,0.0406,0.0449,0.0485,0.0527,0.0539,0.0567,0.0603,0.0583,0.0398,0.0231,-0.0008,-0.0128,-0.0259,-0.0289,-0.0283,-0.0282,-0.0262,-0.0276,-0.0272,-0.0305,-0.0305,-0.0305,-0.0305,-0.0305,0.031,0.0337,0.0374,0.0422,0.0467,0.0533,0.058,0.0632,0.0698,0.0754,0.0728,0.071,0.0497,0.0205,-0.0017,-0.0254,-0.0249,-0.033,-0.0329,-0.0329,-0.0311,-0.0292,-0.0338,-0.0338,-0.0338,-0.0338,-0.0338,0,0.0338,0.037,0.0419,0.0482,0.0541,0.0559,0.065,0.0705,0.0798,0.0844,0.0875,0.0705,0.0502,0.0261,-0.0089,-0.0301,-0.0326,-0.0365,-0.0349,-0.0347,-0.0346,-0.0329,-0.0361,-0.0361,-0.0362,-0.0362,0,0,0.0355,0.0405,0.0432,0.0534,0.0585,0.0678,0.074,0.0825,0.0887,0.0943,0.0944,0.09,0.06,0.0352,0.005,-0.0152,-0.02,-0.0194,-0.0155,-0.0099,-0.0095,-0.0306,-0.0275,0,0,0,0,0]}],[{"header":{"parameterUnit":"m.s-1","parameterCategory":2,"la1":30.2991,"la2":30.254,"lo1":-89.0895,"lo2":-89.0444,"dy":0.0017,"dx":0.0017,"nx":28,"ny":28,"refTime":"2023-09-01T03:00:00:Z","depth":"4","parameterNumber":2,"parameterNumberName":"U-component_of_CURRENTS"},"data":[0,0,0,0,0,0,0,0,0,0,0,0,0,0,0,0,0,0,0,0,0,0,0,0,0,0,0,0,0,0,0,0,0,0,0,0,0,0,0,0,0,0,0,0,0,0,0,0,0,0,0,0,0,0,0,0,0,0,0.0927,0.0928,0,0.0972,0.0972,0.0972,0.1012,0.1012,0.1013,0.1014,0.1053,0.1053,0.1053,0,0,0,0,0,0,0,0,0,0,0,0,0,0.0863,0.0864,0.0927,0.0928,0.0929,0.0972,0.0972,0.0973,0.1012,0.1012,0.1013,0.1014,0.1052,0.1053,0.1053,0,0,0,0,0,0,0,0,0,0,0,0,0,0.0896,0.0864,0.0927,0.0955,0.0958,0.0972,0.0972,0.0973,0.1011,0.1012,0.1013,0.1014,0.1052,0.1053,0.1054,0.1039,0,0,0.1056,0.1056,0,0,0,0,0,0,0,0,0.0894,0.0898,0.095,0.0953,0.0956,0.0989,0.0964,0.0995,0.1011,0.0989,0.1014,0.1015,0.1031,0.1034,0.1037,0.1041,0.1042,0.1056,0.1056,0.1056,0.1057,0,0,0,0,0,0,0,0.0892,0.0896,0.0943,0.0951,0.0955,0.0961,0.0966,0.097,0.1003,0.0991,0.0995,0.1002,0.1033,0.1037,0.1039,0.1043,0.1056,0.1056,0.1057,0.1057,0.1111,0.1112,0,0,0,0,0,0,0.089,0.0894,0.0942,0.0945,0.0929,0.0961,0.0967,0.0976,0.1003,0.1009,0.1001,0.1004,0.1035,0.1038,0.104,0.1094,0.1056,0.1057,0.1057,0.111,0.1112,0.1113,0,0,0,0,0,0,0.0888,0.0893,0.094,0.0922,0.0928,0.0962,0.0971,0.0976,0.1005,0.1011,0.1017,0.1028,0.1036,0.1039,0.1069,0.1093,0.1057,0.1058,0.1109,0.1111,0.1112,0.1157,0,0,0,0,0,0,0.0886,0.0893,0.0907,0.0922,0.0929,0.0966,0.097,0.0977,0.1008,0.1012,0.1035,0.1038,0.1037,0.1068,0.107,0.1093,0.1058,0.1108,0.111,0.1112,0.1154,0.116,0.1164,0,0,0,0,0,0.0884,0.0897,0.0908,0.0914,0.0945,0.0967,0.0971,0.0996,0.1009,0.1025,0.1044,0.1039,0.1082,0.107,0.1071,0.1096,0.1107,0.1109,0.1112,0.1152,0.1158,0.1164,0,0,0,0,0,0,0.0879,0.0903,0.0915,0.0936,0.0959,0.0974,0.0995,0.1008,0.1035,0.1047,0.105,0.1055,0.109,0.1086,0.1072,0.1117,0.1094,0.1097,0.1124,0.113,0.1135,0.1133,0.1059,0,0,0,0,0,0.0884,0.0902,0.0923,0.0944,0.0957,0.098,0.0996,0.1012,0.1033,0.1047,0.1064,0.108,0.1095,0.1109,0.1119,0.1142,0.1141,0.1159,0.1164,0.1169,0.1168,0.1186,0.1193,0.112,0.112,0.112,0,0,0.0888,0.0905,0.0916,0.0945,0.0965,0.0986,0.0992,0.1024,0.1046,0.1046,0.1087,0.11,0.1106,0.1135,0.115,0.1139,0.1192,0.1172,0.1175,0.1173,0.1189,0.1196,0.1202,0.1122,0.1122,0.1121,0,0,0.0896,0.0922,0.0937,0.0957,0.0992,0.1006,0.1021,0.105,0.1073,0.1107,0.1115,0.1143,0.1168,0.1177,0.1183,0.1221,0.1219,0.1231,0.1258,0.1275,0.1281,0.1286,0.1307,0.1314,0.1235,0.1235,0.1235,0,0.0902,0.0923,0.0946,0.0966,0.0987,0.1018,0.1039,0.1063,0.11,0.1119,0.1129,0.1176,0.1184,0.1214,0.1233,0.1233,0.1246,0.1233,0.1282,0.1287,0.1291,0.1311,0.1318,0.1237,0.1237,0.1237,0.1237,0,0.0914,0.0941,0.0955,0.0989,0.1014,0.104,0.1073,0.1107,0.1138,0.1158,0.1205,0.1222,0.1249,0.126,0.1261,0.13,0.1301,0.1286,0.1265,0.1301,0.132,0.1326,0.1241,0.124,0.1239,0.1239,0,0,0.0902,0.0953,0.096,0.098,0.103,0.1048,0.1093,0.1134,0.1166,0.1208,0.1245,0.128,0.1297,0.1305,0.1315,0.1333,0.1382,0.1331,0.1331,0.135,0.1433,0.1374,0.1375,0.1382,0.1383,0.1383,0.1438,0,0.0908,0.0942,0.0969,0.101,0.1031,0.1076,0.1111,0.1155,0.1196,0.1241,0.127,0.131,0.1312,0.1338,0.1357,0.1376,0.1399,0.1369,0.1396,0.1396,0.1338,0.138,0.1387,0.1442,0.1444,0.1445,0.1446,0,0.0906,0.0932,0.0968,0.1021,0.1036,0.1068,0.1133,0.117,0.1234,0.1267,0.1314,0.1342,0.139,0.1381,0.1433,0.1419,0.1434,0.1441,0.1443,0.1373,0.1348,0.1395,0.1456,0.1456,0.1455,0.1454,0.1453,0,0.0874,0.0929,0.0959,0.0977,0.1042,0.1074,0.1116,0.1181,0.1219,0.1292,0.133,0.1382,0.1422,0.1446,0.1483,0.1466,0.1533,0.1504,0.1463,0.1459,0.1475,0.1469,0.1536,0.1536,0.1535,0.1535,0.1535,0,0.0857,0.0884,0.0951,0.0966,0.1009,0.1063,0.1116,0.1165,0.1238,0.128,0.1346,0.1386,0.1443,0.1491,0.1503,0.1512,0.1554,0.1475,0.147,0.1495,0.149,0.1481,0.1473,0.1537,0.1537,0.1536,0.1536,0,0.0813,0.0858,0.0894,0.0967,0.0994,0.1027,0.1115,0.1149,0.1229,0.1288,0.1319,0.1409,0.1474,0.1527,0.1574,0.1536,0.1548,0.154,0.1585,0.158,0.1456,0.1451,0.1485,0.1484,0.1482,0.1481,0.148,0,0.0791,0.0805,0.0883,0.091,0.0947,0.1006,0.1045,0.1134,0.117,0.1289,0.1308,0.1412,0.1464,0.1491,0.1543,0.1573,0.1555,0.1544,0.1476,0.146,0.1451,0.1448,0.1445,0.1478,0.1478,0.1477,0.1477,0,0.0745,0.078,0.081,0.0865,0.0912,0.0954,0.1018,0.1037,0.1136,0.1221,0.128,0.1329,0.1404,0.145,0.1498,0.1507,0.1537,0.1529,0.1531,0.1466,0.1451,0.1443,0.1442,0.1472,0.1473,0.1473,0.1474,0,0.0713,0.0721,0.0768,0.0811,0.0865,0.0887,0.0927,0.0981,0.1032,0.1164,0.1181,0.1296,0.1389,0.1418,0.1455,0.1474,0.1442,0.1377,0.1386,0.1392,0.1337,0.1302,0.128,0,0,0,0,0,0.0676,0.0682,0.0713,0.0754,0.0803,0.0839,0.0904,0.0945,0.1039,0.1058,0.112,0.119,0.1261,0.1318,0.1321,0.1407,0.144,0.1401,0.1367,0.1446,0.1451,0.1396,0,0,0,0,0,0,0.0652,0.0676,0.0689,0.0699,0.072,0.0765,0.0804,0.0866,0.0883,0.0988,0.1039,0.1125,0.1216,0.1261,0.1303,0.1321,0.1276,0.1477,0.1474,0.1443,0.1448,0.1452,0.1397,0,0,0,0,0]},{"header":{"parameterUnit":"m.s-1","parameterCategory":2,"la1":30.2991,"la2":30.254,"lo1":-89.0895,"lo2":-89.0444,"dy":0.0017,"dx":0.0017,"nx":28,"ny":28,"refTime":"2023-09-01T03:00:00:Z","depth":"4","parameterNumber":3,"parameterNumberName":"V-component_of_CURRENTS"},"data":[0,0,0,0,0,0,0,0,0,0,0,0,0,0,0,0,0,0,0,0,0,0,0,0,0,0,0,0,0,0,0,0,0,0,0,0,0,0,0,0,0,0,0,0,0,0,0,0,0,0,0,0,0,0,0,0,0,0,0.0055,0.0055,0,0.0021,0.0021,0.0021,-0.0002,-0.0002,-0.0002,-0.0002,-0.0065,-0.0067,-0.0069,0,0,0,0,0,0,0,0,0,0,0,0,0,0.0082,0.0082,0.0055,0.0055,0.0055,0.0021,0.0021,0.002,-0.0002,-0.0002,-0.0002,-0.0002,-0.0065,-0.0067,-0.0069,0,0,0,0,0,0,0,0,0,0,0,0,0,0.0061,0.0082,0.0055,0.004,0.0038,0.0022,0.0021,0.002,-0.0002,-0.0002,-0.0002,-0.0002,-0.0064,-0.0067,-0.0069,-0.008,0,0,-0.0076,-0.0077,0,0,0,0,0,0,0,0,0.0063,0.006,0.0043,0.0041,0.0039,0.0014,0.0007,-0.0015,-0.0002,0.0013,-0.0002,-0.0002,-0.0041,-0.0045,-0.0052,-0.0083,-0.0086,-0.0076,-0.0078,-0.0079,-0.008,0,0,0,0,0,0,0,0.0064,0.0062,0.0042,0.0042,0.004,0.0028,0.0025,0.0003,-0.0013,0.0012,0.001,0.0007,-0.0042,-0.0049,-0.0053,-0.0087,-0.0076,-0.0078,-0.008,-0.0081,-0.0133,-0.0133,0,0,0,0,0,0,0.007,0.0063,0.0043,0.0041,0.0051,0.0028,0.0024,0.0022,-0.0013,-0.0018,0.0007,0.0006,-0.0045,-0.005,-0.0056,-0.0069,-0.0079,-0.0081,-0.0082,-0.0133,-0.0133,-0.0133,0,0,0,0,0,0,0.0071,0.0069,0.0044,0.0051,0.0047,0.0028,0.0025,0.0021,0.0014,-0.0016,-0.0022,0.0003,-0.0045,-0.0052,-0.0075,-0.0072,-0.0082,-0.0084,-0.0133,-0.0133,-0.0133,-0.0098,0,0,0,0,0,0,0.0072,0.0069,0.007,0.0052,0.0047,0.0036,0.0025,0.0021,0.0012,0.001,-0.0021,-0.0027,-0.0046,-0.0071,-0.0077,-0.0076,-0.0086,-0.0133,-0.0133,-0.0133,-0.0099,-0.0097,-0.0095,0,0,0,0,0,0.0073,0.0075,0.007,0.0068,0.0049,0.0036,0.0033,0.0018,0.0012,0.001,-0.0011,-0.0026,-0.0074,-0.0073,-0.008,-0.0079,-0.0133,-0.0133,-0.0133,-0.01,-0.0097,-0.0095,0,0,0,0,0,0,0.0086,0.0072,0.0067,0.0064,0.0053,0.0033,0.003,0.002,0.0002,-0.0,-0.0028,-0.0036,-0.0053,-0.0072,-0.0069,-0.0094,-0.0105,-0.0107,-0.0078,-0.0076,-0.0074,-0.0061,-0.0088,0,0,0,0,0,0.009,0.0089,0.0073,0.0071,0.0067,0.0049,0.0042,0.0032,0.0014,0.0006,-0.0015,-0.0038,-0.0058,-0.0071,-0.0091,-0.0107,-0.0123,-0.0111,-0.0108,-0.0106,-0.0101,-0.0123,-0.0122,-0.0132,-0.0132,-0.0132,0,0,0.0095,0.0088,0.0087,0.0074,0.0065,0.0063,0.0045,0.0037,0.0035,0.0002,-0.0008,-0.0032,-0.0061,-0.0076,-0.0086,-0.0092,-0.0112,-0.0106,-0.0104,-0.01,-0.0122,-0.0121,-0.012,-0.0132,-0.0132,-0.0132,0,0,0.0106,0.0098,0.0101,0.0095,0.0083,0.0072,0.0071,0.0053,0.0044,0.003,0.0008,-0.0013,-0.0044,-0.0063,-0.0077,-0.0076,-0.0099,-0.0083,-0.0063,-0.0083,-0.0082,-0.0082,-0.01,-0.0102,-0.0082,-0.0082,-0.0082,0,0.0112,0.0115,0.01,0.0103,0.0102,0.0079,0.0085,0.0072,0.0049,0.0044,0.0032,-0.001,-0.0037,-0.0055,-0.0055,-0.007,-0.0084,-0.007,-0.008,-0.0079,-0.008,-0.0099,-0.01,-0.008,-0.008,-0.0081,-0.0081,0,0.0125,0.013,0.0131,0.013,0.0126,0.0126,0.011,0.0103,0.009,0.0077,0.0057,0.002,-0.0003,-0.0017,-0.0037,-0.005,-0.0061,-0.0073,-0.0084,-0.0076,-0.0097,-0.01,-0.0078,-0.0078,-0.0079,-0.0079,0,0,0.0135,0.0141,0.0142,0.0151,0.0142,0.0142,0.0139,0.0132,0.0134,0.0105,0.0104,0.0063,0.0043,0.0026,-0.0004,-0.0025,-0.0042,-0.0046,-0.0048,-0.006,-0.0085,-0.0096,-0.0101,-0.0055,-0.0056,-0.0056,-0.0099,0,0.015,0.0169,0.0165,0.0183,0.0193,0.0178,0.018,0.017,0.0156,0.0148,0.0109,0.0094,0.0059,0.0048,0.0021,-0.0025,-0.0047,-0.0029,-0.0095,-0.0097,-0.0104,-0.0103,-0.0057,-0.0101,-0.0102,-0.0102,-0.0103,0,0.0163,0.0177,0.0199,0.0218,0.022,0.0226,0.023,0.0229,0.0209,0.0197,0.0174,0.0145,0.0108,0.0079,0.0007,0.0021,-0.0027,-0.0065,-0.0067,-0.0091,-0.0113,-0.0112,-0.0108,-0.0107,-0.0107,-0.0107,-0.0106,0,0.0179,0.0201,0.0223,0.0228,0.0241,0.0249,0.0253,0.0244,0.0252,0.0229,0.0231,0.0182,0.016,0.0096,0.0015,0.0012,-0.0064,-0.0079,-0.0134,-0.0136,-0.0127,-0.0128,-0.0127,-0.0127,-0.0127,-0.0127,-0.0127,0,0.0196,0.0214,0.0234,0.0246,0.0275,0.0274,0.0296,0.0291,0.0292,0.0306,0.0259,0.0252,0.0163,0.0109,0.0031,-0.0059,-0.0054,-0.0129,-0.0147,-0.0112,-0.011,-0.0129,-0.0129,-0.0128,-0.0128,-0.0128,-0.0128,0,0.0205,0.0218,0.0247,0.0272,0.0283,0.0301,0.0331,0.0347,0.0342,0.0358,0.0355,0.0307,0.023,0.0138,0.0031,-0.0034,-0.0122,-0.0156,-0.0107,-0.0123,-0.0183,-0.018,-0.0217,-0.0218,-0.0219,-0.0219,-0.022,0,0.021,0.0226,0.0267,0.0288,0.0301,0.033,0.0351,0.0366,0.0387,0.0388,0.0398,0.0338,0.029,0.014,0.0029,-0.0115,-0.014,-0.0183,-0.0188,-0.0178,-0.0192,-0.0188,-0.0185,-0.0221,-0.0221,-0.0221,-0.0221,0,0.022,0.0233,0.0258,0.0304,0.0335,0.0375,0.0409,0.0433,0.0449,0.0451,0.0438,0.036,0.027,0.0143,0.003,-0.0077,-0.0153,-0.019,-0.0189,-0.0194,-0.0183,-0.0195,-0.0191,-0.0223,-0.0223,-0.0223,-0.0223,0,0.0224,0.0242,0.0276,0.0315,0.036,0.0405,0.0425,0.0451,0.0475,0.0483,0.0473,0.0377,0.0323,0.0161,0.0055,-0.0049,-0.008,-0.0113,-0.0117,-0.0116,-0.008,-0.0049,-0.0062,0,0,0,0,0,0.0227,0.0247,0.0285,0.0331,0.0377,0.0407,0.0457,0.0474,0.0496,0.0497,0.0492,0.0408,0.0252,0.018,0.0075,0.0026,-0.011,-0.0103,-0.0151,-0.0236,-0.0233,-0.021,0,0,0,0,0,0,0.0228,0.0261,0.0281,0.0337,0.0371,0.0426,0.0462,0.0481,0.0482,0.0489,0.0409,0.0377,0.0223,0.0314,0.0071,0.0038,-0.0009,-0.0174,-0.0177,-0.0237,-0.0235,-0.0233,-0.0208,0,0,0,0,0]}]]